Tracking 29591 objects as of 19-Sep-2024
HD Live streaming from Space Station
objects crossing your sky now

SL-6 R/B(2)

Track SL-6 R/B(2) now!


NORAD ID: 13897
Int'l Code: 1983-019D
Perigee: 602.4 km
Apogee: 40,350.8 km
Inclination: 62.7 °
Period: 729.7 minutes
Semi major axis: 26847 km
RCS: 8.0304 m2 (large)
Launch date: March 16, 1983
Source: Commonwealth of Independent States (former USSR) (CIS)
Launch site: PLESETSK MISSILE AND SPACE COMPLEX (PKMTR)

Note: This is a ROCKET BODY
Your satellite tracking list
Your tracking list is empty




NASA's NSSDC Master Catalog

Two Line Element Set (TLE):
1 13897U 83019D   24263.30608166 -.00000054  00000-0  55091-4 0  9990
2 13897  62.6932 287.9361 7402598 273.5010  12.6688  1.97353500298088
Source of the keplerian elements: AFSPC